FDX14 KSFO-KLAX

Flight info

Callsign FDX14
Flight time 0h 59m
Altitude 35000
Route WESLA5 SUSEY EBAYE BURGL IRNMN2
Aircraft B77L/H-SDE1E2E3FGHIJ2J3J4J5M1RWXY/LB1D1

Departure

Time 2026-05-06 03:28
Airport San Francisco International Airport (KSFO)

Arrival

Time 2026-05-06 04:28
Airport Los Angeles International Airport (KLAX)
Time Latitude Longitude Altitude Speed Heading
2026-05-06 03:10 37.63562 -122.38714 27 ft 0 kts 70°
2026-05-06 03:18 37.63557 -122.38732 25 ft 2 kts 75°
2026-05-06 03:18 37.63553 -122.38752 24 ft 2 kts 80°
2026-05-06 03:18 37.63552 -122.38773 24 ft 2 kts 90°
2026-05-06 03:18 37.63553 -122.38793 24 ft 2 kts 105°
2026-05-06 03:19 37.63559 -122.38812 24 ft 2 kts 127°
2026-05-06 03:19 37.63571 -122.38827 23 ft 2 kts 144°
2026-05-06 03:19 37.63579 -122.38834 24 ft 1 kts 147°
2026-05-06 03:19 37.63580 -122.38835 24 ft 0 kts 147°
2026-05-06 03:21 37.63537 -122.38810 26 ft 17 kts 169°
2026-05-06 03:21 37.63448 -122.38892 26 ft 17 kts 246°
2026-05-06 03:21 37.63411 -122.39034 26 ft 17 kts 247°
2026-05-06 03:22 37.63347 -122.39158 26 ft 17 kts 216°
2026-05-06 03:22 37.63233 -122.39147 26 ft 17 kts 167°
2026-05-06 03:22 37.63148 -122.39234 26 ft 17 kts 226°
2026-05-06 03:22 37.63036 -122.39228 26 ft 17 kts 160°
2026-05-06 03:23 37.62941 -122.39130 26 ft 22 kts 120°
2026-05-06 03:23 37.62849 -122.38912 26 ft 29 kts 118°
2026-05-06 03:23 37.62754 -122.38687 26 ft 29 kts 117°
2026-05-06 03:23 37.62660 -122.38461 26 ft 29 kts 118°
2026-05-06 03:24 37.62565 -122.38235 26 ft 29 kts 117°
2026-05-06 03:24 37.62470 -122.38009 26 ft 29 kts 118°
2026-05-06 03:24 37.62376 -122.37783 26 ft 29 kts 117°
2026-05-06 03:24 37.62281 -122.37557 26 ft 29 kts 118°
2026-05-06 03:25 37.62187 -122.37332 26 ft 29 kts 117°
2026-05-06 03:25 37.62092 -122.37106 26 ft 29 kts 118°
2026-05-06 03:25 37.61997 -122.36880 26 ft 29 kts 117°
2026-05-06 03:25 37.61903 -122.36655 26 ft 29 kts 118°
2026-05-06 03:26 37.61807 -122.36430 26 ft 29 kts 118°
2026-05-06 03:26 37.61714 -122.36204 26 ft 29 kts 117°
2026-05-06 03:26 37.61620 -122.35978 26 ft 29 kts 118°
2026-05-06 03:26 37.61524 -122.35754 26 ft 29 kts 118°
2026-05-06 03:27 37.61434 -122.35685 26 ft 16 kts 199°
2026-05-06 03:27 37.61381 -122.35780 26 ft 15 kts 285°
2026-05-06 03:27 37.61396 -122.35821 26 ft 14 kts 296°
2026-05-06 03:27 37.61579 -122.36262 27 ft 97 kts 297°
2026-05-06 03:28 37.62001 -122.37271 36 ft 159 kts 296°
2026-05-06 03:28 37.62552 -122.38555 462 ft 175 kts 296°
2026-05-06 03:28 37.63140 -122.39965 1068 ft 186 kts 296°
2026-05-06 03:28 37.63724 -122.41430 1851 ft 185 kts 296°
2026-05-06 03:29 37.64334 -122.42930 2334 ft 201 kts 296°
2026-05-06 03:29 37.64998 -122.44543 2854 ft 216 kts 296°
2026-05-06 03:29 37.65722 -122.46294 3427 ft 231 kts 296°
2026-05-06 03:29 37.66476 -122.48121 4186 ft 237 kts 295°
2026-05-06 03:30 37.66871 -122.50192 4651 ft 257 kts 265°
2026-05-06 03:30 37.66250 -122.52342 5312 ft 271 kts 234°
2026-05-06 03:30 37.64805 -122.53936 6017 ft 284 kts 207°
2026-05-06 03:30 37.62882 -122.54544 6793 ft 291 kts 178°
2026-05-06 03:31 37.60918 -122.54024 7622 ft 290 kts 157°
2026-05-06 03:31 37.59106 -122.52909 8442 ft 291 kts 146°
2026-05-06 03:31 37.57346 -122.51597 9258 ft 296 kts 149°
2026-05-06 03:31 37.55484 -122.50453 10133 ft 299 kts 154°
2026-05-06 03:32 37.53510 -122.49461 10699 ft 316 kts 157°
2026-05-06 03:32 37.51351 -122.48477 10905 ft 345 kts 158°
2026-05-06 03:32 37.49058 -122.47315 11064 ft 365 kts 148°
2026-05-06 03:32 37.47130 -122.45214 11441 ft 371 kts 129°
2026-05-06 03:33 37.45324 -122.42797 12079 ft 385 kts 132°
2026-05-06 03:33 37.43410 -122.40416 13073 ft 389 kts 133°
2026-05-06 03:33 37.41454 -122.38029 14091 ft 394 kts 133°
2026-05-06 03:33 37.39478 -122.35612 14974 ft 399 kts 133°
2026-05-06 03:34 37.37483 -122.33161 15879 ft 403 kts 132°
2026-05-06 03:34 37.35468 -122.30672 16736 ft 409 kts 132°
2026-05-06 03:34 37.33429 -122.28142 17561 ft 415 kts 131°
2026-05-06 03:34 37.31363 -122.25570 18428 ft 420 kts 131°
2026-05-06 03:35 37.29279 -122.22973 19160 ft 425 kts 131°
2026-05-06 03:35 37.27168 -122.20342 19899 ft 429 kts 131°
2026-05-06 03:35 37.25035 -122.17685 20630 ft 434 kts 131°
2026-05-06 03:35 37.22886 -122.15007 21340 ft 438 kts 130°
2026-05-06 03:36 37.20712 -122.12303 22059 ft 443 kts 130°
2026-05-06 03:36 37.18511 -122.09569 22801 ft 447 kts 130°
2026-05-06 03:36 37.16287 -122.06808 23535 ft 452 kts 130°
2026-05-06 03:36 37.14043 -122.04024 24140 ft 456 kts 130°
2026-05-06 03:37 37.11781 -122.01222 24803 ft 458 kts 130°
2026-05-06 03:37 37.09507 -121.98408 25445 ft 461 kts 130°
2026-05-06 03:37 37.07211 -121.95569 26044 ft 465 kts 130°
2026-05-06 03:37 37.04900 -121.92714 26603 ft 470 kts 130°
2026-05-06 03:38 37.02563 -121.89827 27164 ft 474 kts 130°
2026-05-06 03:38 37.00205 -121.86917 27740 ft 477 kts 130°
2026-05-06 03:38 36.97832 -121.83994 28310 ft 480 kts 130°
2026-05-06 03:38 36.95447 -121.81060 28937 ft 483 kts 130°
2026-05-06 03:39 36.93047 -121.78108 29473 ft 486 kts 129°
2026-05-06 03:39 36.90625 -121.75131 29958 ft 490 kts 129°
2026-05-06 03:39 36.88188 -121.72141 30466 ft 491 kts 129°
2026-05-06 03:39 36.85760 -121.69166 31059 ft 489 kts 129°
2026-05-06 03:40 36.83340 -121.66205 31704 ft 486 kts 129°
2026-05-06 03:40 36.80928 -121.63258 32350 ft 483 kts 129°
2026-05-06 03:40 36.78537 -121.60335 32912 ft 482 kts 129°
2026-05-06 03:40 36.76142 -121.57409 33426 ft 481 kts 129°
2026-05-06 03:41 36.73753 -121.54491 33927 ft 481 kts 129°
2026-05-06 03:41 36.71368 -121.51581 34403 ft 480 kts 128°
2026-05-06 03:41 36.68984 -121.48674 34816 ft 480 kts 129°
2026-05-06 03:41 36.66595 -121.45766 35135 ft 482 kts 129°
2026-05-06 03:42 36.61808 -121.39938 35102 ft 483 kts 129°
2026-05-06 03:42 36.57029 -121.34147 35114 ft 478 kts 129°
2026-05-06 03:43 36.52267 -121.28381 35115 ft 478 kts 129°
2026-05-06 03:43 36.47507 -121.22622 35127 ft 478 kts 129°
2026-05-06 03:44 36.42744 -121.16867 35109 ft 478 kts 129°
2026-05-06 03:44 36.37965 -121.11112 35103 ft 479 kts 129°
2026-05-06 03:45 36.33177 -121.05354 35101 ft 479 kts 129°
2026-05-06 03:45 36.29160 -121.00531 35099 ft 480 kts 129°
2026-05-06 03:46 36.24363 -120.94783 35104 ft 480 kts 129°
2026-05-06 03:46 36.19550 -120.89022 35109 ft 484 kts 129°
2026-05-06 03:47 36.14680 -120.83200 35095 ft 489 kts 129°
2026-05-06 03:47 36.09778 -120.77358 35086 ft 490 kts 129°
2026-05-06 03:48 36.04861 -120.71512 35097 ft 490 kts 129°
2026-05-06 03:48 35.99978 -120.65714 35091 ft 489 kts 129°
2026-05-06 03:49 35.95073 -120.59900 35077 ft 488 kts 129°
2026-05-06 03:49 35.90179 -120.54108 35072 ft 487 kts 129°
2026-05-06 03:50 35.85294 -120.48336 35076 ft 486 kts 129°
2026-05-06 03:50 35.80419 -120.42587 35075 ft 485 kts 129°
2026-05-06 03:51 35.75547 -120.36851 35083 ft 485 kts 129°
2026-05-06 03:51 35.70671 -120.31122 35092 ft 484 kts 129°
2026-05-06 03:52 35.65793 -120.25399 35065 ft 485 kts 129°
2026-05-06 03:52 35.60914 -120.19687 35073 ft 484 kts 129°
2026-05-06 03:53 35.56036 -120.13985 35079 ft 484 kts 129°
2026-05-06 03:53 35.51150 -120.08284 35069 ft 484 kts 129°
2026-05-06 03:54 35.46266 -120.02595 35066 ft 484 kts 129°
2026-05-06 03:54 35.41384 -119.96917 35059 ft 484 kts 129°
2026-05-06 03:55 35.36511 -119.91263 35055 ft 478 kts 129°
2026-05-06 03:55 35.31697 -119.85681 34642 ft 479 kts 129°
2026-05-06 03:56 35.29282 -119.82885 34131 ft 475 kts 129°
2026-05-06 03:56 35.26812 -119.80221 33569 ft 473 kts 133°
2026-05-06 03:56 35.24252 -119.77789 33059 ft 470 kts 135°
2026-05-06 03:56 35.21598 -119.75401 32558 ft 465 kts 135°
2026-05-06 03:57 35.19030 -119.73108 32048 ft 460 kts 135°
2026-05-06 03:57 35.16471 -119.70795 31540 ft 455 kts 134°
2026-05-06 03:57 35.13956 -119.68489 31051 ft 450 kts 134°
2026-05-06 03:57 35.11478 -119.66193 30564 ft 445 kts 134°
2026-05-06 03:58 35.09030 -119.63912 30068 ft 441 kts 133°
2026-05-06 03:58 35.06605 -119.61650 29502 ft 437 kts 134°
2026-05-06 03:58 35.04200 -119.59408 29011 ft 433 kts 133°
2026-05-06 03:58 35.01816 -119.57190 28499 ft 429 kts 134°
2026-05-06 03:59 34.99453 -119.54992 28007 ft 425 kts 134°
2026-05-06 03:59 34.97112 -119.52818 27536 ft 421 kts 134°
2026-05-06 03:59 34.94791 -119.50663 27061 ft 417 kts 134°
2026-05-06 03:59 34.92492 -119.48534 26603 ft 414 kts 134°
2026-05-06 04:00 34.90202 -119.46428 26146 ft 411 kts 135°
2026-05-06 04:00 34.87909 -119.44367 25700 ft 409 kts 136°
2026-05-06 04:00 34.85619 -119.42328 25279 ft 407 kts 136°
2026-05-06 04:00 34.83342 -119.40302 24834 ft 405 kts 136°
2026-05-06 04:01 34.81075 -119.38279 24373 ft 403 kts 136°
2026-05-06 04:01 34.78823 -119.36267 23942 ft 401 kts 137°
2026-05-06 04:01 34.76577 -119.34261 23478 ft 399 kts 137°
2026-05-06 04:01 34.74364 -119.32291 23180 ft 392 kts 137°
2026-05-06 04:02 34.72155 -119.30353 22703 ft 390 kts 138°
2026-05-06 04:02 34.69956 -119.28435 22255 ft 388 kts 138°
2026-05-06 04:02 34.67774 -119.26532 21854 ft 385 kts 138°
2026-05-06 04:02 34.65600 -119.24636 21440 ft 383 kts 139°
2026-05-06 04:03 34.63438 -119.22760 21014 ft 381 kts 139°
2026-05-06 04:03 34.61282 -119.20900 20611 ft 379 kts 140°
2026-05-06 04:03 34.59140 -119.19056 20187 ft 377 kts 140°
2026-05-06 04:03 34.57007 -119.17220 19764 ft 375 kts 140°
2026-05-06 04:04 34.54891 -119.15380 19356 ft 373 kts 140°
2026-05-06 04:04 34.52804 -119.13534 18951 ft 371 kts 139°
2026-05-06 04:04 34.50726 -119.11680 18562 ft 370 kts 140°
2026-05-06 04:04 34.48680 -119.09860 18106 ft 369 kts 140°
2026-05-06 04:05 34.46606 -119.08023 17613 ft 369 kts 141°
2026-05-06 04:05 34.44532 -119.06192 17173 ft 368 kts 141°
2026-05-06 04:05 34.42459 -119.04380 16747 ft 366 kts 141°
2026-05-06 04:05 34.40390 -119.02591 16331 ft 365 kts 141°
2026-05-06 04:06 34.38333 -119.00814 15917 ft 363 kts 142°
2026-05-06 04:06 34.36282 -118.99041 15514 ft 361 kts 142°
2026-05-06 04:06 34.34241 -118.97275 15104 ft 360 kts 142°
2026-05-06 04:06 34.32234 -118.95479 14706 ft 359 kts 141°
2026-05-06 04:07 34.30243 -118.93659 14293 ft 358 kts 141°
2026-05-06 04:07 34.28258 -118.91846 13877 ft 358 kts 141°
2026-05-06 04:07 34.26273 -118.90044 13422 ft 357 kts 141°
2026-05-06 04:07 34.24294 -118.88243 12978 ft 353 kts 141°
2026-05-06 04:08 34.22381 -118.86485 12610 ft 336 kts 140°
2026-05-06 04:08 34.20577 -118.84826 12318 ft 317 kts 140°
2026-05-06 04:08 34.18844 -118.83233 12006 ft 309 kts 140°
2026-05-06 04:08 34.17150 -118.81679 12006 ft 307 kts 140°
2026-05-06 04:09 34.15477 -118.80056 12006 ft 307 kts 136°
2026-05-06 04:09 34.13909 -118.78353 11984 ft 297 kts 135°
2026-05-06 04:09 34.12422 -118.76702 11902 ft 287 kts 134°
2026-05-06 04:09 34.10965 -118.75088 11527 ft 282 kts 134°
2026-05-06 04:10 34.09520 -118.73498 10946 ft 280 kts 134°
2026-05-06 04:10 34.08075 -118.71917 10279 ft 281 kts 134°
2026-05-06 04:10 34.06610 -118.70323 9746 ft 286 kts 134°
2026-05-06 04:10 34.05122 -118.68707 9257 ft 289 kts 135°
2026-05-06 04:11 34.03688 -118.67084 9253 ft 274 kts 126°
2026-05-06 04:11 34.02832 -118.65037 9259 ft 282 kts 100°
2026-05-06 04:11 34.02592 -118.62693 9044 ft 283 kts 93°
2026-05-06 04:11 34.02390 -118.60320 8685 ft 285 kts 94°
2026-05-06 04:12 34.02170 -118.57964 8377 ft 277 kts 95°
2026-05-06 04:12 34.01954 -118.55686 8103 ft 271 kts 95°
2026-05-06 04:12 34.01747 -118.53477 7994 ft 258 kts 95°
2026-05-06 04:12 34.01550 -118.51379 7863 ft 246 kts 95°
2026-05-06 04:13 34.01360 -118.49366 7666 ft 237 kts 95°
2026-05-06 04:13 34.01178 -118.47442 7544 ft 228 kts 95°
2026-05-06 04:13 34.01032 -118.45556 7399 ft 230 kts 86°
2026-05-06 04:13 34.01261 -118.43634 7146 ft 234 kts 80°
2026-05-06 04:14 34.01126 -118.41703 7053 ft 234 kts 111°
2026-05-06 04:14 34.00374 -118.39945 7024 ft 238 kts 120°
2026-05-06 04:14 33.99505 -118.38244 7015 ft 239 kts 121°
2026-05-06 04:14 33.98609 -118.36551 7010 ft 240 kts 121°
2026-05-06 04:15 33.97707 -118.34850 7014 ft 241 kts 121°
2026-05-06 04:15 33.96807 -118.33146 7011 ft 242 kts 121°
2026-05-06 04:15 33.95915 -118.31448 7008 ft 242 kts 121°
2026-05-06 04:15 33.95018 -118.29736 6998 ft 241 kts 121°
2026-05-06 04:16 33.94126 -118.28031 6981 ft 240 kts 121°
2026-05-06 04:16 33.93242 -118.26341 6983 ft 238 kts 121°
2026-05-06 04:16 33.92354 -118.24660 7004 ft 237 kts 121°
2026-05-06 04:16 33.91469 -118.22983 6981 ft 237 kts 121°
2026-05-06 04:17 33.90593 -118.21330 6850 ft 231 kts 122°
2026-05-06 04:17 33.89753 -118.19733 6597 ft 221 kts 122°
2026-05-06 04:17 33.88945 -118.18182 6182 ft 218 kts 122°
2026-05-06 04:17 33.88147 -118.16628 5777 ft 219 kts 121°
2026-05-06 04:18 33.87624 -118.14953 5340 ft 215 kts 92°
2026-05-06 04:18 33.87748 -118.13183 4982 ft 211 kts 81°
2026-05-06 04:18 33.87954 -118.11439 4547 ft 211 kts 82°
2026-05-06 04:18 33.88162 -118.09687 4173 ft 212 kts 82°
2026-05-06 04:19 33.88372 -118.07958 3991 ft 206 kts 81°
2026-05-06 04:19 33.88584 -118.06230 3999 ft 211 kts 81°
2026-05-06 04:19 33.88796 -118.04485 3998 ft 210 kts 81°
2026-05-06 04:19 33.89007 -118.02746 3995 ft 209 kts 81°
2026-05-06 04:20 33.89219 -118.01013 3991 ft 208 kts 79°
2026-05-06 04:20 33.89786 -117.99465 3971 ft 202 kts 44°
2026-05-06 04:20 33.90980 -117.98658 4006 ft 200 kts
2026-05-06 04:20 33.92368 -117.98694 4014 ft 202 kts 351°
2026-05-06 04:21 33.93711 -117.99140 3979 ft 199 kts 326°
2026-05-06 04:21 33.94587 -118.00370 3992 ft 194 kts 296°
2026-05-06 04:21 33.95140 -118.01861 4006 ft 196 kts 292°
2026-05-06 04:21 33.95670 -118.03390 3997 ft 199 kts 291°
2026-05-06 04:22 33.96195 -118.04924 3992 ft 195 kts 291°
2026-05-06 04:22 33.96652 -118.06430 3964 ft 188 kts 279°
2026-05-06 04:22 33.96681 -118.08014 3984 ft 193 kts 268°
2026-05-06 04:23 33.96492 -118.11318 3982 ft 198 kts 264°
2026-05-06 04:23 33.96337 -118.12957 3978 ft 196 kts 263°
2026-05-06 04:23 33.96175 -118.14573 3963 ft 195 kts 263°
2026-05-06 04:23 33.96005 -118.16228 3681 ft 201 kts 263°
2026-05-06 04:24 33.95833 -118.17897 3436 ft 199 kts 263°
2026-05-06 04:24 33.95665 -118.19528 3167 ft 194 kts 263°
2026-05-06 04:24 33.95503 -118.21108 2945 ft 186 kts 263°
2026-05-06 04:24 33.95348 -118.22617 2681 ft 182 kts 263°
2026-05-06 04:25 33.95192 -118.24131 2423 ft 179 kts 263°
2026-05-06 04:25 33.95041 -118.25608 2197 ft 178 kts 263°
2026-05-06 04:25 33.94890 -118.27070 1971 ft 178 kts 262°
2026-05-06 04:25 33.94742 -118.28517 1722 ft 169 kts 262°
2026-05-06 04:26 33.94602 -118.29875 1502 ft 159 kts 262°
2026-05-06 04:26 33.94467 -118.31188 1294 ft 151 kts 262°
2026-05-06 04:26 33.94339 -118.32429 1105 ft 149 kts 262°
2026-05-06 04:26 33.94213 -118.33657 892 ft 148 kts 262°
2026-05-06 04:27 33.94090 -118.34857 683 ft 141 kts 261°
2026-05-06 04:27 33.93969 -118.36035 493 ft 141 kts 262°
2026-05-06 04:27 33.93851 -118.37191 317 ft 139 kts 262°
2026-05-06 04:27 33.93731 -118.38346 152 ft 139 kts 262°
2026-05-06 04:28 33.93616 -118.39435 98 ft 118 kts 262°
2026-05-06 04:28 33.93553 -118.39998 100 ft 38 kts 259°
2026-05-06 04:28 33.93480 -118.40181 99 ft 8 kts 231°
2026-05-06 04:28 33.93432 -118.40176 101 ft 8 kts 134°
2026-05-06 04:29 33.93422 -118.40109 101 ft 8 kts 84°
2026-05-06 04:29 33.93422 -118.40105 101 ft 2 kts 82°
2026-05-06 04:29 33.93441 -118.39970 99 ft 27 kts 83°
2026-05-06 04:29 33.93464 -118.39746 101 ft 27 kts 83°
2026-05-06 04:30 33.93486 -118.39523 98 ft 27 kts 83°
2026-05-06 04:30 33.93507 -118.39299 98 ft 27 kts 84°
2026-05-06 04:30 33.93527 -118.39074 98 ft 27 kts 84°
2026-05-06 04:30 33.93497 -118.38920 98 ft 16 kts 159°
2026-05-06 04:31 33.93424 -118.38906 98 ft 16 kts 173°
2026-05-06 04:31 33.93395 -118.38902 98 ft 0 kts 174°